Location: Lac de la Montagne noire
(46.1952°N, 74.2701°W)
Time: 18:14:08
(UTC-04:00)

ISS - Pass Details

Date: 01 April 2019
Orbit: 408 x 410 km, 51.6° (Epoch: 22 April)

Event Time Altitude Azimuth Distance (km) Brightness Sun altitude
Rises 20:21:52 0° 293° (WNW) 2,339 2.3 -10.3°
Reaches altitude 10° 20:24:04 10° 303° (WNW) 1,476 0.4 -10.7°
Maximum altitude 20:27:08 34° 10° (N) 692 -2.6 -11.2°
Enters shadow 20:29:35 14° 73° (ENE) 1,249 -1.8 -11.6°
